Regional Weather Roundup
Issued by NWS

Home | Current Version | Previous Version | Graphics & Text | Print | Product List | Glossary On
Versions: 1 2 3 4 5 6 7 8 9 10 11 12 13 14 15 16 17 18 19 20 21 22 23 24 25 26 27 28 29 30 31 32 33 34 35 36 37 38 39 40 41 42 43 44 45 46 47 48 49 50
904
ASUS44 KMEG 280910
RWRTN
TENNESSEE HOURLY STATE WEATHER ROUNDUP
NATIONAL WEATHER SERVICE MEMPHIS TN
400 AM CDT THU JUL 28 2016

TNZ002-004-019-021-049-052-054-088>092-281000-
WEST TENNESSEE

CITY           SKY/WX    TMP DP  RH WIND       PRES   REMARKS
MEMPHIS INTL   HVY RAIN  75  73  93 SW7       29.90S FOG
NWS MEMPHIS      N/A     76 N/A N/A MISG        N/A
JACKSON        RAIN      76  76 100 CALM      29.90S FOG
DYERSBURG      CLOUDY    75  73  94 CALM      29.91S
UNION CITY     CLOUDY    75  75 100 CALM      29.89F
PARIS          CLOUDY    72  72 100 SE6       29.91S
LEXINGTON      CLOUDY    75  73  94 CALM      29.91S
$$

TNZ008-025-027-028-033-062-065-066-281000-
NORTH MIDDLE TENNESSEE

CITY           SKY/WX    TMP DP  RH WIND       PRES   REMARKS
NASHVILLE      CLOUDY    75  71  87 CALM      29.93F
CLARKSVILLE    TSTM      72  70  93 CALM      29.92S FOG
SMYRNA         CLOUDY    78  73  84 S5        29.94S
COOKEVILLE     MOCLDY    77  72  83 S5        29.96S
CROSSVILLE     MOCLDY    72  69  90 S3        30.02F
$$

TNZ061-075-076-078-094-096-097-281000-
SOUTH MIDDLE TENNESSEE

CITY           SKY/WX    TMP DP  RH WIND       PRES   REMARKS
FAYETTEVILLE   CLOUDY    75  73  94 S7G14     29.97S FOG
TULLAHOMA      CLOUDY    75  72  88 S5        29.99S
WINCHESTER     CLOUDY    75  72  88 S3        29.98S
MCMINNVILLE    MOCLDY    77  73  88 SW5G23    29.97F
COLUMBIA       CLOUDY   N/A N/A N/A S6        29.93S
SHELBYVILLE    MOCLDY    77  73  88 S3        29.96S
$$

TNZ017-018-042-046-047-281000-
NORTHEAST TENNESSEE

CITY           SKY/WX    TMP DP  RH WIND       PRES   REMARKS
TRI CITIES     CLOUDY    70  68  93 CALM      30.01F
ELIZABETHTON     N/A     72  70  94 E7        30.01S
$$

TNZ012-013-036-069-073-074-281000-
CENTRAL EAST TENNESSEE

CITY           SKY/WX    TMP DP  RH WIND       PRES   REMARKS
KNOXVILLE      PTCLDY    77  68  73 SW12      29.98S
OAK RIDGE      MOCLDY    79  68  69 S5        29.99F
GATLINBURG     PTCLDY    75  66  73 CALM      29.98S
MORRISTOWN     CLOUDY    75  73  94 CALM      30.00S
$$

TNZ083-085-099-281000-
SOUTHEAST TENNESSEE

CITY           SKY/WX    TMP DP  RH WIND       PRES   REMARKS
CHATTANOOGA    CLEAR     76  69  79 S6        29.99S
$$

SKY/WX REPORTED AS FAIR MEANS FEW OR NO CLOUDS BELOW
12 THOUSAND FEET.





USA.gov is the U.S. government's official web portal to all federal, state and local government web resources and services.